LOT489 EPWA-ENZV

Flight info

Callsign LOT489
Flight time N/A
Altitude 34000
Route OLILA L621 SOMOR DCT LUSID DCT MADAG DCT RIVEX
Aircraft B738/M-SDE2E3FGHIRWXY/LB1

Departure

Time N/A
Airport Warsaw Chopin Airport (EPWA)

Arrival

Time 2026-05-06 18:19
Airport Stavanger Airport, Sola (ENZV)
Time Latitude Longitude Altitude Speed Heading
2026-05-06 17:02 54.02379 17.52076 33844 ft 425 kts 300°
2026-05-06 17:02 54.04094 17.47988 33841 ft 425 kts 300°
2026-05-06 17:03 54.07533 17.39769 33843 ft 426 kts 300°
2026-05-06 17:03 54.10977 17.31508 33836 ft 427 kts 300°
2026-05-06 17:04 54.14388 17.23305 33848 ft 426 kts 300°
2026-05-06 17:04 54.17807 17.15053 33861 ft 426 kts 300°
2026-05-06 17:05 54.21222 17.06781 33860 ft 426 kts 300°
2026-05-06 17:05 54.24631 16.98497 33863 ft 426 kts 300°
2026-05-06 17:06 54.28039 16.90187 33862 ft 427 kts 300°
2026-05-06 17:06 54.31446 16.81853 33854 ft 427 kts 300°
2026-05-06 17:07 54.34830 16.73547 33883 ft 427 kts 300°
2026-05-06 17:07 54.38235 16.65163 33876 ft 428 kts 300°
2026-05-06 17:08 54.41634 16.56762 33860 ft 429 kts 300°
2026-05-06 17:08 54.45022 16.48364 33874 ft 429 kts 300°
2026-05-06 17:09 54.48422 16.39905 33877 ft 430 kts 300°
2026-05-06 17:09 54.51818 16.31429 33879 ft 430 kts 300°
2026-05-06 17:10 54.55194 16.22973 33886 ft 432 kts 300°
2026-05-06 17:10 54.58599 16.14415 33882 ft 433 kts 300°
2026-05-06 17:11 54.62012 16.05807 33888 ft 434 kts 300°
2026-05-06 17:11 54.65423 15.97173 33890 ft 435 kts 300°
2026-05-06 17:12 54.68810 15.88573 33891 ft 435 kts 300°
2026-05-06 17:12 54.72216 15.79891 33890 ft 436 kts 300°
2026-05-06 17:13 54.75611 15.71208 33900 ft 436 kts 300°
2026-05-06 17:13 54.79006 15.62494 33897 ft 436 kts 300°
2026-05-06 17:14 54.82388 15.53780 33909 ft 435 kts 300°
2026-05-06 17:14 54.85769 15.45032 33910 ft 435 kts 300°
2026-05-06 17:15 54.89120 15.36336 33928 ft 435 kts 300°
2026-05-06 17:15 54.92541 15.27616 33916 ft 437 kts 303°
2026-05-06 17:16 54.96353 15.19441 33921 ft 438 kts 307°
2026-05-06 17:16 55.00307 15.11350 33920 ft 438 kts 307°
2026-05-06 17:17 55.04223 15.03210 33922 ft 438 kts 306°
2026-05-06 17:17 55.08106 14.95007 33940 ft 437 kts 306°
2026-05-06 17:18 55.11942 14.86833 33956 ft 438 kts 306°
2026-05-06 17:18 55.15805 14.78567 33944 ft 440 kts 306°
2026-05-06 17:19 55.19685 14.70240 33922 ft 441 kts 306°
2026-05-06 17:19 55.23551 14.61918 33937 ft 439 kts 306°
2026-05-06 17:20 55.27398 14.53608 33942 ft 438 kts 306°
2026-05-06 17:20 55.31202 14.45365 33943 ft 437 kts 306°
2026-05-06 17:21 55.35019 14.37062 33945 ft 436 kts 306°
2026-05-06 17:21 55.38821 14.28763 33945 ft 436 kts 306°
2026-05-06 17:22 55.42617 14.20451 33949 ft 436 kts 306°
2026-05-06 17:22 55.46411 14.12114 33955 ft 437 kts 306°
2026-05-06 17:23 55.50213 14.03731 33969 ft 437 kts 306°
2026-05-06 17:23 55.54001 13.95348 33966 ft 439 kts 305°
2026-05-06 17:24 55.57813 13.86887 33962 ft 441 kts 305°
2026-05-06 17:24 55.61630 13.78383 33959 ft 442 kts 305°
2026-05-06 17:25 55.65455 13.69832 33967 ft 443 kts 305°
2026-05-06 17:25 55.69291 13.61228 33962 ft 444 kts 305°
2026-05-06 17:26 55.73122 13.52602 33976 ft 445 kts 304°
2026-05-06 17:26 55.76920 13.44023 33963 ft 444 kts 304°
2026-05-06 17:27 55.80729 13.35388 33964 ft 443 kts 304°
2026-05-06 17:27 55.84526 13.26747 33968 ft 442 kts 304°
2026-05-06 17:28 55.88308 13.18112 33981 ft 441 kts 303°
2026-05-06 17:28 55.92045 13.09547 33974 ft 440 kts 303°
2026-05-06 17:29 55.95793 13.00927 33965 ft 438 kts 303°
2026-05-06 17:29 55.99517 12.92334 33966 ft 436 kts 303°
2026-05-06 17:30 56.03228 12.83737 33969 ft 435 kts 303°
2026-05-06 17:30 56.06894 12.75216 33965 ft 434 kts 303°
2026-05-06 17:31 56.10572 12.66636 33964 ft 433 kts 303°
2026-05-06 17:31 56.14237 12.58055 33977 ft 433 kts 302°
2026-05-06 17:32 56.17869 12.49524 33959 ft 432 kts 302°
2026-05-06 17:32 56.21508 12.40944 33951 ft 431 kts 302°
2026-05-06 17:33 56.24779 12.33205 33959 ft 430 kts 302°
2026-05-06 17:33 56.28396 12.24617 33947 ft 429 kts 302°
2026-05-06 17:34 56.31994 12.16042 33946 ft 428 kts 302°
2026-05-06 17:34 56.35549 12.07540 33954 ft 427 kts 302°
2026-05-06 17:35 56.39120 11.98974 33943 ft 425 kts 302°
2026-05-06 17:35 56.42665 11.90420 33947 ft 424 kts 302°
2026-05-06 17:36 56.47929 11.77637 33947 ft 423 kts 302°
2026-05-06 17:36 56.51440 11.69067 33946 ft 423 kts 301°
2026-05-06 17:37 56.54943 11.60484 33960 ft 423 kts 301°
2026-05-06 17:37 56.58443 11.51881 33969 ft 424 kts 301°
2026-05-06 17:38 56.61932 11.43272 33963 ft 425 kts 301°
2026-05-06 17:38 56.65436 11.34598 33946 ft 426 kts 301°
2026-05-06 17:39 56.68936 11.25903 33946 ft 426 kts 301°
2026-05-06 17:39 56.72436 11.17177 33943 ft 426 kts 301°
2026-05-06 17:40 56.75930 11.08432 33958 ft 427 kts 300°
2026-05-06 17:40 56.79421 10.99664 33950 ft 427 kts 300°
2026-05-06 17:41 56.82318 10.92366 33950 ft 427 kts 300°
2026-05-06 17:41 56.86360 10.82143 33954 ft 427 kts 300°
2026-05-06 17:42 56.89827 10.73339 33944 ft 426 kts 300°
2026-05-06 17:42 56.92728 10.65949 33969 ft 426 kts 300°
2026-05-06 17:43 56.96159 10.57177 33960 ft 426 kts 300°
2026-05-06 17:43 56.99597 10.48362 33948 ft 423 kts 300°
2026-05-06 17:44 57.03000 10.39604 33943 ft 419 kts 300°
2026-05-06 17:44 57.06367 10.30905 33952 ft 416 kts 300°
2026-05-06 17:45 57.09708 10.22240 33959 ft 414 kts 299°
2026-05-06 17:45 57.13026 10.13600 33964 ft 413 kts 299°
2026-05-06 17:46 57.16338 10.04945 33973 ft 414 kts 299°
2026-05-06 17:46 57.19632 9.96306 33972 ft 415 kts 299°
2026-05-06 17:47 57.22951 9.87574 33965 ft 416 kts 299°
2026-05-06 17:47 57.26276 9.78795 33966 ft 417 kts 299°
2026-05-06 17:48 57.29596 9.69993 33965 ft 418 kts 298°
2026-05-06 17:48 57.32897 9.61215 33966 ft 418 kts 298°
2026-05-06 17:49 57.36218 9.52352 33977 ft 418 kts 298°
2026-05-06 17:49 57.39524 9.43497 33966 ft 416 kts 298°
2026-05-06 17:50 57.42808 9.34667 33969 ft 415 kts 298°
2026-05-06 17:50 57.46073 9.25856 33968 ft 413 kts 298°
2026-05-06 17:51 57.49301 9.17108 33972 ft 412 kts 298°
2026-05-06 17:51 57.52535 9.08315 33974 ft 411 kts 298°
2026-05-06 17:52 57.55758 8.99516 33978 ft 411 kts 298°
2026-05-06 17:52 57.58973 8.90710 33976 ft 410 kts 298°
2026-05-06 17:53 57.62177 8.81903 34008 ft 410 kts 297°
2026-05-06 17:53 57.65379 8.73064 33982 ft 410 kts 297°
2026-05-06 17:54 57.68571 8.64227 33976 ft 410 kts 297°
2026-05-06 17:54 57.71751 8.55385 33974 ft 410 kts 297°
2026-05-06 17:55 57.74907 8.46580 33983 ft 410 kts 297°
2026-05-06 17:55 57.78080 8.37694 33969 ft 410 kts 297°
2026-05-06 17:56 57.81238 8.28781 33970 ft 410 kts 297°
2026-05-06 17:56 57.84308 8.20164 33948 ft 385 kts 297°
2026-05-06 17:57 57.85785 8.16013 33948 ft 371 kts 297°
2026-05-06 17:57 57.87173 8.12098 33943 ft 358 kts 296°
2026-05-06 17:57 57.88525 8.08269 33946 ft 345 kts 296°
2026-05-06 17:57 57.89825 8.04580 33945 ft 332 kts 296°
2026-05-06 17:58 57.92361 7.97318 33978 ft 338 kts 296°
2026-05-06 17:58 57.94984 7.89769 33950 ft 348 kts 296°
2026-05-06 17:59 57.96307 7.85977 33647 ft 345 kts 296°
2026-05-06 17:59 57.97610 7.82240 33150 ft 346 kts 296°
2026-05-06 17:59 57.98945 7.78396 32221 ft 357 kts 297°
2026-05-06 17:59 58.00333 7.74380 31049 ft 374 kts 297°
2026-05-06 18:00 58.01795 7.70142 29751 ft 394 kts 298°
2026-05-06 18:00 58.03310 7.65775 28936 ft 397 kts 298°
2026-05-06 18:00 58.04815 7.61441 28500 ft 392 kts 298°
2026-05-06 18:00 58.06297 7.57171 28085 ft 386 kts 298°
2026-05-06 18:01 58.07756 7.52949 27592 ft 383 kts 298°
2026-05-06 18:01 58.09206 7.48737 27022 ft 381 kts 298°
2026-05-06 18:01 58.10644 7.44544 26510 ft 379 kts 298°
2026-05-06 18:01 58.12075 7.40369 26064 ft 375 kts 298°
2026-05-06 18:02 58.13486 7.36242 25678 ft 371 kts 298°
2026-05-06 18:02 58.14872 7.32185 25188 ft 364 kts 298°
2026-05-06 18:02 58.16239 7.28171 24534 ft 363 kts 299°
2026-05-06 18:02 58.17606 7.24146 23900 ft 361 kts 299°
2026-05-06 18:03 58.18959 7.20160 23309 ft 358 kts 299°
2026-05-06 18:03 58.20281 7.16259 22681 ft 355 kts 299°
2026-05-06 18:03 58.21624 7.12289 22050 ft 351 kts 299°
2026-05-06 18:03 58.22923 7.08442 21421 ft 349 kts 299°
2026-05-06 18:04 58.24226 7.04579 20817 ft 346 kts 299°
2026-05-06 18:04 58.25516 7.00745 20238 ft 343 kts 300°
2026-05-06 18:04 58.26800 6.96927 19647 ft 341 kts 300°
2026-05-06 18:04 58.28070 6.93140 19098 ft 339 kts 300°
2026-05-06 18:05 58.29332 6.89372 18583 ft 336 kts 299°
2026-05-06 18:05 58.30578 6.85648 18099 ft 331 kts 299°
2026-05-06 18:05 58.31804 6.81975 17529 ft 328 kts 299°
2026-05-06 18:05 58.33020 6.78327 16992 ft 323 kts 299°
2026-05-06 18:06 58.34218 6.74729 16401 ft 321 kts 299°
2026-05-06 18:06 58.35410 6.71138 15795 ft 320 kts 300°
2026-05-06 18:06 58.36594 6.67565 15246 ft 318 kts 300°
2026-05-06 18:06 58.37772 6.64015 14698 ft 315 kts 300°
2026-05-06 18:07 58.38967 6.60593 14127 ft 312 kts 302°
2026-05-06 18:07 58.40202 6.57208 13437 ft 311 kts 302°
2026-05-06 18:07 58.41445 6.53818 12541 ft 313 kts 303°
2026-05-06 18:07 58.42711 6.50350 11451 ft 323 kts 303°
2026-05-06 18:08 58.43999 6.46806 10631 ft 324 kts 303°
2026-05-06 18:08 58.45272 6.43288 10204 ft 313 kts 303°
2026-05-06 18:08 58.46467 6.39973 10082 ft 294 kts 303°
2026-05-06 18:08 58.47590 6.36849 9956 ft 279 kts 303°
2026-05-06 18:09 58.48660 6.33858 9762 ft 267 kts 303°
2026-05-06 18:09 58.49687 6.30981 9431 ft 261 kts 303°
2026-05-06 18:09 58.50710 6.28111 8878 ft 263 kts 304°
2026-05-06 18:09 58.51742 6.25211 8414 ft 262 kts 304°
2026-05-06 18:10 58.52749 6.22376 8132 ft 254 kts 304°
2026-05-06 18:10 58.53756 6.19545 7621 ft 257 kts 305°
2026-05-06 18:10 58.54745 6.16756 7332 ft 250 kts 306°
2026-05-06 18:10 58.55728 6.13982 6745 ft 255 kts 306°
2026-05-06 18:11 58.56716 6.11191 6509 ft 253 kts 306°
2026-05-06 18:11 58.57709 6.08382 6191 ft 255 kts 306°
2026-05-06 18:11 58.58707 6.05553 5881 ft 257 kts 306°
2026-05-06 18:11 58.59699 6.02744 5594 ft 258 kts 306°
2026-05-06 18:12 58.60708 5.99885 5291 ft 259 kts 306°
2026-05-06 18:12 58.61714 5.97027 5031 ft 258 kts 306°
2026-05-06 18:12 58.62718 5.94169 4748 ft 258 kts 306°
2026-05-06 18:12 58.63723 5.91302 4453 ft 259 kts 306°
2026-05-06 18:13 58.64732 5.88424 4164 ft 261 kts 306°
2026-05-06 18:13 58.65731 5.85569 4013 ft 253 kts 306°
2026-05-06 18:13 58.66707 5.82772 3802 ft 251 kts 306°
2026-05-06 18:13 58.67653 5.80052 3655 ft 237 kts 307°
2026-05-06 18:14 58.68554 5.77474 3552 ft 227 kts 308°
2026-05-06 18:14 58.69399 5.75052 3440 ft 214 kts 308°
2026-05-06 18:14 58.70207 5.72725 3383 ft 203 kts 308°
2026-05-06 18:14 58.70973 5.70530 3287 ft 192 kts 308°
2026-05-06 18:15 58.71691 5.68462 3192 ft 180 kts 307°
2026-05-06 18:15 58.72378 5.66489 2992 ft 174 kts 308°
2026-05-06 18:15 58.73137 5.64793 2824 ft 162 kts 334°
2026-05-06 18:15 58.74208 5.64408 2685 ft 156 kts 355°
2026-05-06 18:16 58.75260 5.64232 2471 ft 146 kts 356°
2026-05-06 18:16 58.76239 5.64150 2265 ft 141 kts 358°
2026-05-06 18:16 58.77233 5.64104 2089 ft 147 kts 358°
2026-05-06 18:16 58.78261 5.64070 1864 ft 148 kts 358°
2026-05-06 18:17 58.79282 5.64039 1658 ft 145 kts 358°
2026-05-06 18:17 58.80269 5.64009 1459 ft 140 kts 357°
2026-05-06 18:17 58.81218 5.63980 1283 ft 131 kts 358°
2026-05-06 18:17 58.82145 5.63952 1079 ft 138 kts 358°
2026-05-06 18:18 58.83073 5.63927 924 ft 130 kts 356°
2026-05-06 18:18 58.83972 5.63900 697 ft 127 kts 355°
2026-05-06 18:18 58.84846 5.63870 539 ft 124 kts 354°
2026-05-06 18:18 58.85709 5.63845 390 ft 125 kts 356°
2026-05-06 18:19 58.86594 5.63819 176 ft 130 kts 355°
2026-05-06 18:19 58.87486 5.63790 42 ft 125 kts 357°
2026-05-06 18:19 58.88223 5.63771 30 ft 78 kts 356°
2026-05-06 18:19 58.88552 5.63743 28 ft 20 kts
2026-05-06 18:20 58.88678 5.63740 27 ft 8 kts 356°
2026-05-06 18:20 58.88704 5.63673 27 ft 7 kts 280°
2026-05-06 18:20 58.88710 5.63583 28 ft 7 kts 275°
2026-05-06 18:20 58.88708 5.63494 31 ft 7 kts 258°
2026-05-06 18:21 58.88688 5.63416 31 ft 7 kts 215°
2026-05-06 18:21 58.88641 5.63415 29 ft 7 kts 174°
2026-05-06 18:21 58.88593 5.63425 30 ft 7 kts 174°
2026-05-06 18:21 58.88543 5.63435 30 ft 7 kts 174°
2026-05-06 18:22 58.88500 5.63413 30 ft 4 kts 222°
2026-05-06 18:22 58.88476 5.63410 29 ft 4 kts 167°
2026-05-06 18:22 58.88452 5.63420 30 ft 4 kts 168°
2026-05-06 18:22 58.88414 5.63430 30 ft 7 kts 175°
2026-05-06 18:23 58.88332 5.63438 30 ft 15 kts 181°
2026-05-06 18:23 58.88280 5.63367 31 ft 7 kts 244°
2026-05-06 18:23 58.88237 5.63299 29 ft 10 kts 184°
2026-05-06 18:23 58.88166 5.63296 29 ft 10 kts 190°
2026-05-06 18:24 58.88102 5.63234 27 ft 11 kts 219°
2026-05-06 18:24 58.88048 5.63137 27 ft 10 kts 224°
2026-05-06 18:24 58.88004 5.63029 26 ft 7 kts 242°
2026-05-06 18:24 58.88003 5.62950 28 ft 6 kts 313°
2026-05-06 18:25 58.88042 5.62917 24 ft 2 kts 344°
2026-05-06 18:25 58.88051 5.62912 26 ft 1 kts 342°
2026-05-06 18:25 58.88058 5.62908 26 ft 0 kts 342°